CW2613 Weather Reports


Display with metric or nautical units.
time (UTC)temp
F
wind
direction
speed
MPH
gust
MPH
rain 1hr
in
rain 24hr
in
rain mn
in
humidity
%
barometer
mb
20260903004556 80 188 0.0 0.0 0.00 0.00 0.00 1 1012.7
20260903003052 80 188 0.0 0.0 0.00 0.00 0.00 1 1012.5
20260903001549 80 188 0.0 0.0 0.00 0.00 0.00 1 1012.4
20260903000043 81 189 0.0 0.0 0.00 0.00 0.00 1 1012.4
20260902234539 82 189 0.0 0.0 0.00 0.00 0.00 1 1012.0
20260902233034 82 193 0.0 0.0 0.00 0.00 0.00 11 1011.8
20260902231533 83 183 0.0 0.0 0.00 0.00 0.00 24 1012.0
20260902230028 84 188 0.0 0.0 0.00 0.00 0.00 37 1011.9
20260902224521 85 194 0.0 0.0 0.00 0.00 0.00 47 1012.0
20260902223018 86 191 0.0 0.0 0.00 0.00 0.00 49 1011.7
20260902221517 86 181 0.0 0.0 0.00 0.00 0.00 50 1011.9
20260902220007 86 181 0.0 0.0 0.00 0.00 0.00 51 1011.8
20260902214503 88 181 0.0 0.0 0.00 0.00 0.00 50 1012.0
20260902213107 88 179 0.0 0.0 0.00 0.00 0.00 54 1012.1
20260902211557 89 181 0.0 0.0 0.00 0.00 0.00 58 1012.0
20260902210057 89 186 0.0 0.0 0.00 0.00 0.00 53 1012.0
20260902204545 90 188 0.0 1.0 0.00 0.00 0.00 58 1011.8
20260902203041 90 183 0.0 0.0 0.00 0.00 0.00 55 1011.7
20260902201538 90 190 0.0 0.0 0.00 0.00 0.00 55 1011.9
20260902200034 89 162 0.0 0.0 0.00 0.00 0.00 53 1011.8
20260902194535 89 184 0.0 0.0 0.00 0.00 0.00 56 1012.2
20260902193023 91 179 0.0 0.0 0.00 0.00 0.00 61 1012.5
20260902191524 90 175 0.0 0.0 0.00 0.00 0.00 58 1012.7
20260902190014 89 200 0.0 0.0 0.00 0.00 0.00 55 1012.8
20260902184508 88 192 0.0 0.0 0.00 0.00 0.00 42 1012.9
20260902183005 88 181 0.0 0.0 0.00 0.00 0.00 48 1013.1
20260902181600 87 165 0.0 0.0 0.00 0.00 0.00 40 1013.3
20260902180055 88 171 0.0 0.0 0.00 0.00 0.00 45 1013.3
20260902174551 88 191 0.0 0.0 0.00 0.00 0.00 49 1013.4
20260902173047 86 182 0.0 0.0 0.00 0.00 0.00 30 1013.5
20260902171542 85 176 0.0 0.0 0.00 0.00 0.00 1 1014.0
20260902170038 83 191 0.0 0.0 0.00 0.00 0.00 1 1014.3
20260902164536 82 175 0.0 0.0 0.00 0.00 0.00 1 1014.4
20260902163031 82 167 0.0 0.0 0.00 0.00 0.00 1 1014.5
20260902161527 82 166 0.0 0.0 0.00 0.00 0.00 1 1014.5
20260902160022 83 166 0.0 0.0 0.00 0.00 0.00 1 1014.7
20260902154518 83 166 0.0 0.0 0.00 0.08 0.00 1 1014.8
20260902153016 83 166 0.0 0.0 0.00 0.08 0.00 3 1014.9
20260902151509 83 166 0.0 0.0 0.00 0.08 0.00 1 1014.9
20260902150005 82 166 0.0 0.0 0.00 0.08 0.00 1 1014.7
20260902144600 82 166 0.0 0.0 0.00 0.08 0.00 1 1014.7
20260902143058 82 165 0.0 0.0 0.00 0.08 0.00 1 1014.6
20260902141554 82 166 0.0 0.0 0.00 0.08 0.00 1 1014.6
20260902140048 81 166 0.0 0.0 0.00 0.08 0.00 1 1014.5
20260902134555 81 165 0.0 0.0 0.00 0.08 0.00 1 1014.5
20260902133038 80 162 0.0 0.0 0.00 0.08 0.00 1 1014.2
20260902131544 79 166 0.0 0.0 0.00 0.08 0.00 1 1014.1
20260902130028 78 166 0.0 0.0 0.00 0.08 0.00 1 1014.3
20260902124524 78 176 0.0 0.0 0.00 0.08 0.00 1 1014.1
20260902123020 77 162 0.0 0.0 0.00 0.08 0.00 1 1014.0
20260902121516 77 162 0.0 0.0 0.00 0.08 0.00 1 1014.0
20260902120011 77 175 0.0 0.0 0.00 0.08 0.00 1 1013.9
20260902114513 76 176 0.0 0.0 0.00 0.08 0.00 1 1014.0
20260902113002 0 0.0 0.0 0.00 0.08 0.00 1013.9
20260902111559 0 0.0 0.0 0.00 0.08 0.00 1013.7
20260902110053 0 0.0 0.0 0.00 0.08 0.00 1013.4
20260902104555 0 0.0 0.0 0.00 0.08 0.00 1013.3
20260902103049 0 0.0 0.0 0.00 0.08 0.00 1013.2
20260902101540 0 0.0 0.0 0.00 0.08 0.00 1013.1
20260902100044 0 0.0 0.0 0.00 0.08 0.00 1013.0
20260902094531 0 0.0 0.0 0.00 0.08 0.00 1012.9
20260902093027 0 0.0 0.0 0.00 0.08 0.00 1012.9
20260902091553 0 0.0 0.0 0.00 0.08 0.00 1013.0
20260902090019 0 0.0 0.0 0.00 0.08 0.00 1013.0
20260902084514 0 0.0 0.0 0.00 0.08 0.00 1012.8
20260902083009 0 0.0 0.0 0.00 0.08 0.00 1013.0
20260902081505 0 0.0 0.0 0.00 0.08 0.00 1013.0
20260902080114 0 0.0 0.0 0.00 0.08 0.00 1012.9
20260902080001 0 0.0 0.0 0.00 0.08 0.00 1012.9
20260902074559 0 0.0 0.0 0.00 0.08 0.00 1012.7
20260902073103 0 0.0 0.0 0.00 0.08 0.00 1012.6
20260902071606 0 0.0 0.0 0.00 0.08 0.00 1012.6
20260902070044 0 0.0 0.0 0.00 0.08 0.00 1012.7
20260902064539 0 0.0 0.0 0.00 0.08 0.00 1012.8
20260902063043 0 0.0 0.0 0.00 0.08 0.00 1013.1
20260902061541 0 0.0 0.0 0.00 0.08 0.00 1013.3
20260902060031 0 0.0 0.0 0.00 0.08 0.00 1013.5
20260902054534 0 0.0 0.0 0.00 0.08 0.00 1013.5
20260902053021 0 0.0 0.0 0.00 0.08 0.00 1013.4
20260902051512 0 0.0 0.0 0.00 0.08 0.00 1013.5
20260902050009 0 0.0 0.0 0.00 0.08 0.00 1013.6
20260902044503 0 0.0 0.0 0.00 0.08 0.00 1013.6
20260902043100 0 0.0 0.0 0.00 0.08 0.00 1013.7
20260902041557 0 0.0 0.0 0.00 0.08 0.00 1013.8
20260902040051 77 177 0.0 0.0 0.00 0.08 0.00 1 1013.9
20260902034546 77 177 0.0 0.0 0.00 0.08 0.08 1 1013.9
20260902033041 77 177 0.0 0.0 0.00 0.08 0.08 1 1014.0
20260902031537 77 177 0.0 0.0 0.00 0.08 0.08 1 1014.4
20260902030032 77 177 0.0 0.0 0.00 0.08 0.08 1 1014.5
20260902024527 78 177 0.0 0.0 0.00 0.08 0.08 1 1014.5
20260902023025 78 177 0.0 0.0 0.00 0.08 0.08 1 1014.5
20260902021525 78 177 0.0 0.0 0.00 0.08 0.08 1 1014.3
20260902020015 78 177 0.0 0.0 0.00 0.08 0.08 1 1014.3
20260902014511 78 177 0.0 0.0 0.00 0.08 0.08 1 1014.1
20260902013005 78 177 0.0 0.0 0.00 0.08 0.08 1 1013.9
20260902011606 79 177 0.0 0.0 0.00 0.08 0.08 1 1013.7
20260902010118 79 177 0.0 0.0 0.00 0.08 0.08 1 1013.7